Weather History for KAXS - January, 2013

Change the Weather History Date:

Tuesday, January 29, 2013

  Actual Average (KLTS) Record (KLTS)
Temperature  
Mean Temperature 54 °F -  
Max Temperature 68 °F 50 °F 74 °F (2011)
Min Temperature 39 °F 27 °F 8 °F (2014)
Degree Days  
Heating Degree Days 12    
Growing Degree Days 4 (Base 50)    
Moisture  
Dew Point 41 °F    
Average Humidity 60    
Maximum Humidity 83    
Minimum Humidity 24    
Precipitation  
Precipitation 0.00 in - - ()
Sea Level Pressure  
Sea Level Pressure 29.64 in    
Wind  
Wind Speed 12 mph (West)    
Max Wind Speed 34 mph    
Max Gust Speed 41 mph    
Visibility 10 miles    
Events Thunderstorm    
Averages and records for this station are not official NWS values.
T = Trace of Precipitation, MM = Missing Value Source: NWS Daily Summary

Daily Weather History Graph

Daily Weather History Graph

Search for Another Location

Airport or City:

Trip Planner

Search our weather history database for the weather conditions in past years. The results will help you decide how hot, cold, wet, or windy it might be!

Date:

Astronomy

Jan. 29, 2013 Rise Set
Actual Time 7:37 AM CST 6:03 PM CST
Civil Twilight 7:10 AM CST 6:30 PM CST
Nautical Twilight 6:40 AM CST 7:00 PM CST
Astronomical Twilight 6:10 AM CST 7:30 PM CST
Moon 8:52 PM CST (1/29) 8:43 AM CST (1/29)
Length of Visible Light 11h 19m
Length of Day
10h 26m
Waning Gibbous, 93% of the Moon is Illuminated
Jan 29
Waning Gibbous
Feb 3
Last Quarter
Feb 10
New
Feb 17
First Quarter
Feb 25
Full

Hourly Weather History & Observations

Time (CST) Temp. Windchill Dew Point Humidity Pressure Visibility Wind Dir Wind Speed Gust Speed Precip Events Conditions
12:15 AM 60.8 °F - 50.0 °F 68% 29.74 in 10.0 mi South 4.6 mph - N/A   Clear
12:35 AM 60.8 °F - 51.8 °F 72% 29.74 in 10.0 mi South 8.1 mph - N/A   Clear
12:55 AM 64.4 °F - 53.6 °F 68% 29.73 in 10.0 mi South 12.7 mph - N/A   Clear
1:15 AM 64.4 °F - 55.4 °F 73% 29.73 in 10.0 mi South 12.7 mph - N/A   Clear
1:35 AM 64.4 °F - 55.4 °F 73% 29.72 in 10.0 mi South 12.7 mph - N/A   Clear
1:55 AM 64.4 °F - 55.4 °F 73% 29.71 in 10.0 mi South 13.8 mph - N/A   Clear
2:15 AM 64.4 °F - 55.4 °F 73% 29.71 in 10.0 mi South 13.8 mph - N/A   Scattered Clouds
2:35 AM 64.4 °F - 57.2 °F 77% 29.71 in 10.0 mi South 12.7 mph - N/A   Overcast
2:55 AM 64.4 °F - 57.2 °F 77% 29.70 in 10.0 mi South 11.5 mph - N/A   Overcast
3:15 AM 64.4 °F - 57.2 °F 77% 29.71 in 10.0 mi South 8.1 mph - N/A   Overcast
3:35 AM 62.6 °F - 57.2 °F 82% 29.69 in 10.0 mi SSE 8.1 mph - N/A   Overcast
3:55 AM 62.6 °F - 57.2 °F 82% 29.67 in 10.0 mi SSE 9.2 mph - N/A   Mostly Cloudy
4:15 AM 64.4 °F - 59.0 °F 83% 29.66 in 10.0 mi SSE 13.8 mph - N/A   Mostly Cloudy
4:35 AM 64.4 °F - 59.0 °F 83% 29.66 in 10.0 mi South 15.0 mph - N/A   Mostly Cloudy
4:55 AM 64.4 °F - 59.0 °F 83% 29.66 in 10.0 mi South 16.1 mph - N/A   Overcast
5:15 AM 64.4 °F - 59.0 °F 83% 29.68 in 10.0 mi West 18.4 mph 24.2 mph N/A   Mostly Cloudy
5:35 AM 59.0 °F - 44.6 °F 59% 29.67 in 10.0 mi NNW 10.4 mph - N/A   Mostly Cloudy
5:55 AM 59.0 °F - 44.6 °F 59% 29.67 in 10.0 mi NNW 8.1 mph - N/A   Overcast
6:15 AM 57.2 °F - 44.6 °F 63% 29.66 in 10.0 mi North 4.6 mph - N/A Thunderstorm Unknown
6:35 AM 55.4 °F - 46.4 °F 72% 29.65 in 10.0 mi North 4.6 mph - N/A   Overcast
7:15 AM 55.4 °F - 44.6 °F 67% 29.65 in 10.0 mi Calm Calm - N/A   Mostly Cloudy
7:35 AM 53.6 °F - 46.4 °F 77% 29.65 in 10.0 mi SSE 3.5 mph - N/A   Scattered Clouds
7:55 AM 53.6 °F - 46.4 °F 77% 29.64 in 10.0 mi Calm Calm - N/A   Scattered Clouds
8:15 AM 51.8 °F - 44.6 °F 76% 29.64 in 10.0 mi Calm Calm - N/A   Scattered Clouds
8:35 AM 50.0 °F - 44.6 °F 82% 29.65 in 10.0 mi West 5.8 mph - N/A   Clear
8:55 AM 51.8 °F - 44.6 °F 76% 29.64 in 10.0 mi West 5.8 mph - N/A Thunderstorm Clear
9:15 AM 50.0 °F - 44.6 °F 82% 29.63 in 10.0 mi WNW 5.8 mph - N/A   Clear
9:35 AM 51.8 °F - 44.6 °F 76% 29.63 in 10.0 mi Calm Calm - N/A   Clear
9:55 AM 53.6 °F - 44.6 °F 72% 29.62 in 10.0 mi West 5.8 mph - N/A   Clear
10:15 AM 53.6 °F - 44.6 °F 72% 29.61 in 10.0 mi West 6.9 mph - N/A   Clear
10:35 AM 55.4 °F - 44.6 °F 67% 29.61 in 10.0 mi West 6.9 mph - N/A   Clear
10:55 AM 62.6 °F - 42.8 °F 48% 29.61 in 10.0 mi West 10.4 mph - N/A   Clear
11:15 AM 64.4 °F - 41.0 °F 42% 29.61 in 10.0 mi West 10.4 mph - N/A   Clear
11:55 AM 66.2 °F - 33.8 °F 30% 29.58 in 10.0 mi WNW 20.7 mph 26.5 mph N/A   Clear
12:15 PM 68.0 °F - 33.8 °F 28% 29.56 in 10.0 mi West 20.7 mph 29.9 mph N/A   Clear
12:35 PM 68.0 °F - 30.2 °F 24% 29.56 in 10.0 mi West 31.1 mph 36.8 mph N/A   Clear
12:55 PM 64.4 °F - 32.0 °F 30% 29.58 in 10.0 mi West 25.3 mph 34.5 mph N/A   Clear
1:15 PM 64.4 °F - 32.0 °F 30% 29.57 in 10.0 mi West 34.5 mph 41.4 mph N/A   Clear
1:35 PM 62.6 °F - 32.0 °F 32% 29.58 in 10.0 mi West 32.2 mph 39.1 mph N/A   Scattered Clouds
1:55 PM 62.6 °F - 30.2 °F 30% 29.59 in 10.0 mi West 34.5 mph 41.4 mph N/A   Scattered Clouds
2:15 PM 62.6 °F - 32.0 °F 32% 29.58 in 10.0 mi West 29.9 mph 41.4 mph N/A   Scattered Clouds
2:35 PM 60.8 °F - 32.0 °F 34% 29.56 in 10.0 mi West 32.2 mph 39.1 mph N/A   Clear
3:15 PM 59.0 °F - 32.0 °F 36% 29.57 in 10.0 mi WSW 25.3 mph 29.9 mph N/A   Scattered Clouds
3:35 PM 59.0 °F - 32.0 °F 36% 29.56 in 10.0 mi WSW 19.6 mph 28.8 mph N/A   Scattered Clouds
3:55 PM 59.0 °F - 32.0 °F 36% 29.55 in 10.0 mi WSW 18.4 mph 27.6 mph N/A   Scattered Clouds
4:15 PM 57.2 °F - 30.2 °F 36% 29.57 in 10.0 mi WSW 21.9 mph 32.2 mph N/A   Scattered Clouds
4:35 PM 55.4 °F - 30.2 °F 38% 29.56 in 10.0 mi West 19.6 mph 24.2 mph N/A   Scattered Clouds
4:55 PM 57.2 °F - 32.0 °F 38% 29.54 in 10.0 mi West 16.1 mph 20.7 mph N/A   Clear
5:15 PM 57.2 °F - 32.0 °F 38% 29.54 in 10.0 mi WSW 12.7 mph - N/A   Clear
5:35 PM 55.4 °F - 32.0 °F 41% 29.55 in 10.0 mi West 10.4 mph - N/A   Clear
5:55 PM 55.4 °F - 32.0 °F 41% 29.55 in 10.0 mi West 11.5 mph - N/A   Clear
6:15 PM 53.6 °F - 32.0 °F 44% 29.56 in 10.0 mi West 11.5 mph - N/A   Clear
6:35 PM 51.8 °F - 32.0 °F 47% 29.56 in 10.0 mi West 8.1 mph - N/A   Clear
6:55 PM 51.8 °F - 32.0 °F 47% 29.56 in 10.0 mi WSW 5.8 mph - N/A   Scattered Clouds
7:15 PM 50.0 °F - 30.2 °F 47% 29.56 in 10.0 mi SSW 3.5 mph - N/A   Scattered Clouds
7:55 PM 44.6 °F 36.4 °F 35.6 °F 71% 29.60 in 10.0 mi North 20.7 mph 25.3 mph N/A   Clear
8:15 PM 44.6 °F 37.8 °F 33.8 °F 66% 29.63 in 10.0 mi North 15.0 mph - N/A   Clear
8:35 PM 42.8 °F 34.8 °F 33.8 °F 70% 29.65 in 10.0 mi North 17.3 mph 23.0 mph N/A   Clear
8:55 PM 42.8 °F 34.8 °F 33.8 °F 70% 29.67 in 10.0 mi North 17.3 mph 23.0 mph N/A   Clear
9:15 PM 42.8 °F 34.5 °F 32.0 °F 66% 29.67 in 10.0 mi North 18.4 mph 25.3 mph N/A   Clear
9:35 PM 41.0 °F 32.8 °F 32.0 °F 70% 29.69 in 10.0 mi North 16.1 mph - N/A   Clear
9:55 PM 41.0 °F 33.1 °F 32.0 °F 70% 29.70 in 10.0 mi North 15.0 mph - N/A   Clear
10:15 PM 41.0 °F 33.9 °F 32.0 °F 70% 29.70 in 10.0 mi North 12.7 mph - N/A   Clear
10:35 PM 39.2 °F 32.0 °F 32.0 °F 75% 29.71 in 10.0 mi NNW 11.5 mph - N/A   Clear
10:55 PM 39.2 °F 32.5 °F 32.0 °F 75% 29.72 in 10.0 mi NW 10.4 mph - N/A   Mostly Cloudy
11:15 PM 41.0 °F 33.1 °F 32.0 °F 70% 29.73 in 10.0 mi NNW 15.0 mph 18.4 mph N/A   Mostly Cloudy
11:35 PM 41.0 °F 32.2 °F 32.0 °F 70% 29.75 in 10.0 mi NNW 18.4 mph 21.9 mph N/A   Mostly Cloudy
11:55 PM 39.2 °F 29.8 °F 30.2 °F 70% 29.75 in 10.0 mi North 18.4 mph - N/A   Scattered Clouds